Regional Weather Roundup
Issued by NWS

Home | Current Version | Previous Version | Text Only | Print | Product List | Glossary On
Versions: 1 2 3 4 5 6 7 8 9 10 11 12 13 14 15 16 17 18 19 20 21 22 23 24 25 26 27 28 29 30 31 32 33 34 35 36 37 38 39 40 41 42 43 44 45 46 47 48 49 50
000
ASUS43 KLMK 151210
RWRKY
KENTUCKY REGIONAL WEATHER ROUNDUP
NATIONAL WEATHER SERVICE LOUISVILLE KY
700 AM EST FRI DEC 15 2017

NOTE "FAIR" INDICATES FEW OR NO CLOUDS BELOW 12,000 FEET
WITH NO SIGNIFICANT WEATHER AND/OR OBSTRUCTIONS TO VISIBILITY.

KYZ001>023-026-027-061>063-070>075-151300-
WESTERN AND SOUTH CENTRAL KENTUCKY

CITY           SKY/WX    TMP DP  RH WIND       PRES   REMARKS
PADUCAH        CLOUDY    32  20  61 NW8G20    30.13R WCI  25
HENDERSON      CLOUDY    30  22  72 W8        30.11R WCI  22
OWENSBORO      CLOUDY    31  24  75 W8        30.10R WCI  23
HOPKINSVILLE   CLOUDY    31  20  62 NW9       30.11R WCI  23
BOWLING GREEN  CLOUDY    31  21  66 W6        30.09R WCI  25
GLASGOW        CLOUDY    30  24  77 W3        30.07S
$$

KYZ024-025-028>034-038-045-046-053-151300-
NORTH CENTRAL KENTUCKY

CITY           SKY/WX    TMP DP  RH WIND       PRES   REMARKS
LOUISVILLE/SDF CLOUDY    30  19  63 SW7       30.07R WCI  23
LOUISVILLE/LOU CLOUDY    26  21  81 CALM      30.07R
FORT KNOX      CLOUDY    28  21  76 CALM      30.05R
$$

KYZ035>037-039>044-047>052-055>060-089>105-151300-
NORTHEAST KENTUCKY

CITY           SKY/WX    TMP DP  RH WIND       PRES   REMARKS
LEXINGTON      CLOUDY    25  19  78 CALM      30.03R
COVINGTON      PTCLDY    19  17  92 CALM      30.02S
FRANKFORT      CLOUDY    26  18  71 SW6       30.03R WCI  19
$$

KYZ054-064>069-076>088-106>120-151300-
SOUTHEAST KENTUCKY

CITY           SKY/WX    TMP DP  RH WIND       PRES   REMARKS
JACKSON        CLOUDY    29  22  75 CALM      29.98R
LONDON         CLOUDY    30  22  72 W6        30.01R WCI  24
SOMERSET       CLOUDY    28  19  69 N5        30.06R WCI  23
MIDDLESBORO    CLOUDY    28  26  89 CALM      30.02R
MONTICELLO     CLOUDY    30  22  72 NW6       30.07R WCI  24
$$





USA.gov is the U.S. government's official web portal to all federal, state and local government web resources and services.